Year,Month,Day,Hour,Minute,Value (Times are PST for temperature in C)
2007,10,23,00,00,11.80
2007,10,23,00,01,11.80
2007,10,23,00,02,11.80
2007,10,23,00,03,11.80
2007,10,23,00,04,11.90
2007,10,23,00,05,11.90
2007,10,23,00,06,11.90
2007,10,23,00,07,11.90
2007,10,23,00,08,12.00
2007,10,23,00,09,12.00
2007,10,23,00,10,12.10
2007,10,23,00,11,12.10
2007,10,23,00,12,12.20
2007,10,23,00,13,12.20
2007,10,23,00,14,12.20
2007,10,23,00,15,12.20
2007,10,23,00,16,12.20
2007,10,23,00,17,12.20
2007,10,23,00,18,12.30
2007,10,23,00,19,12.30
2007,10,23,00,20,12.30
2007,10,23,00,21,12.30
2007,10,23,00,22,12.30
2007,10,23,00,23,12.30
2007,10,23,00,24,12.30
2007,10,23,00,25,12.30
2007,10,23,00,26,12.30
2007,10,23,00,27,12.30
2007,10,23,00,28,12.30
2007,10,23,00,29,12.30
2007,10,23,00,30,12.30
2007,10,23,00,31,12.30
2007,10,23,00,32,12.40
2007,10,23,00,33,12.40
2007,10,23,00,34,12.40
2007,10,23,00,35,12.40
2007,10,23,00,36,12.40
2007,10,23,00,37,12.50
2007,10,23,00,38,12.50
2007,10,23,00,39,12.50
2007,10,23,00,40,12.50
2007,10,23,00,41,12.50
2007,10,23,00,42,12.60
2007,10,23,00,43,12.60
2007,10,23,00,44,12.60
2007,10,23,00,45,12.60
2007,10,23,00,46,12.70
2007,10,23,00,47,12.70
2007,10,23,00,48,12.70
2007,10,23,00,49,12.70
2007,10,23,00,50,12.70
2007,10,23,00,51,12.70
2007,10,23,00,52,12.70
2007,10,23,00,53,12.70
2007,10,23,00,54,12.70
2007,10,23,00,55,12.70
2007,10,23,00,56,12.70
2007,10,23,00,57,12.70
2007,10,23,00,58,12.70
2007,10,23,00,59,12.70
2007,10,23,01,00,12.70
2007,10,23,01,01,12.70
2007,10,23,01,02,12.70
2007,10,23,01,03,12.70
2007,10,23,01,04,12.70
2007,10,23,01,05,12.70
2007,10,23,01,06,12.70
2007,10,23,01,07,12.70
2007,10,23,01,08,12.60
2007,10,23,01,09,12.60
2007,10,23,01,10,12.60
2007,10,23,01,11,12.60
2007,10,23,01,12,12.60
2007,10,23,01,13,12.60
2007,10,23,01,14,12.60
2007,10,23,01,15,12.60
2007,10,23,01,16,12.60
2007,10,23,01,17,12.60
2007,10,23,01,18,12.50
2007,10,23,01,19,12.50
2007,10,23,01,20,12.50
2007,10,23,01,21,12.50
2007,10,23,01,22,12.50
2007,10,23,01,23,12.50
2007,10,23,01,24,12.50
2007,10,23,01,25,12.50
2007,10,23,01,26,12.50
2007,10,23,01,27,12.50
2007,10,23,01,28,12.50
2007,10,23,01,29,12.50
2007,10,23,01,30,12.50
2007,10,23,01,31,12.50
2007,10,23,01,32,12.50
2007,10,23,01,33,12.50
2007,10,23,01,34,12.50
2007,10,23,01,35,12.50
2007,10,23,01,36,12.50
2007,10,23,01,37,12.50
2007,10,23,01,38,12.50
2007,10,23,01,39,12.50
2007,10,23,01,40,12.50
2007,10,23,01,41,12.50
2007,10,23,01,42,12.50
2007,10,23,01,43,12.50
2007,10,23,01,44,12.50
2007,10,23,01,45,12.50
2007,10,23,01,46,12.50
2007,10,23,01,47,12.50
2007,10,23,01,48,12.50
2007,10,23,01,49,12.50
2007,10,23,01,50,12.50
2007,10,23,01,51,12.50
2007,10,23,01,52,12.50
2007,10,23,01,53,12.50
2007,10,23,01,54,12.50
2007,10,23,01,55,12.50
2007,10,23,01,56,12.50
2007,10,23,01,57,12.60
2007,10,23,01,58,12.60
2007,10,23,01,59,12.60
2007,10,23,02,00,12.60
2007,10,23,02,01,12.60
2007,10,23,02,02,12.60
2007,10,23,02,03,12.60
2007,10,23,02,04,12.60
2007,10,23,02,05,12.60
2007,10,23,02,06,12.70
2007,10,23,02,07,12.70
2007,10,23,02,08,12.70
2007,10,23,02,09,12.70
2007,10,23,02,10,12.70
2007,10,23,02,11,12.70
2007,10,23,02,12,12.70
2007,10,23,02,13,12.70
2007,10,23,02,14,12.70
2007,10,23,02,15,12.70
2007,10,23,02,16,12.70
2007,10,23,02,17,12.70
2007,10,23,02,18,12.70
2007,10,23,02,19,12.70
2007,10,23,02,20,12.70
2007,10,23,02,21,12.70
2007,10,23,02,22,12.70
2007,10,23,02,23,12.70
2007,10,23,02,24,12.70
2007,10,23,02,25,12.70
2007,10,23,02,26,12.70
2007,10,23,02,27,12.70
2007,10,23,02,28,12.80
2007,10,23,02,29,12.80
2007,10,23,02,30,12.80
2007,10,23,02,31,12.80
2007,10,23,02,32,12.80
2007,10,23,02,33,12.80
2007,10,23,02,34,12.80
2007,10,23,02,35,12.80
2007,10,23,02,36,12.80
2007,10,23,02,37,12.80
2007,10,23,02,38,12.80
2007,10,23,02,39,12.80
2007,10,23,02,40,12.80
2007,10,23,02,41,12.80
2007,10,23,02,42,12.80
2007,10,23,02,43,12.80
2007,10,23,02,44,12.70
2007,10,23,02,45,12.70
2007,10,23,02,46,12.70
2007,10,23,02,47,12.70
2007,10,23,02,48,12.60
2007,10,23,02,49,12.60
2007,10,23,02,50,12.60
2007,10,23,02,51,12.60
2007,10,23,02,52,12.60
2007,10,23,02,53,12.60
2007,10,23,02,54,12.60
2007,10,23,02,55,12.60
2007,10,23,02,56,12.50
2007,10,23,02,57,12.50
2007,10,23,02,58,12.50
2007,10,23,02,59,12.50
2007,10,23,03,00,12.50
2007,10,23,03,01,12.50
2007,10,23,03,02,12.50
2007,10,23,03,03,12.50
2007,10,23,03,04,12.50
2007,10,23,03,05,12.50
2007,10,23,03,06,12.50
2007,10,23,03,07,12.50
2007,10,23,03,08,12.50
2007,10,23,03,09,12.50
2007,10,23,03,10,12.50
2007,10,23,03,11,12.50
2007,10,23,03,12,12.50
2007,10,23,03,13,12.40
2007,10,23,03,14,12.40
2007,10,23,03,15,12.40
2007,10,23,03,16,12.40
2007,10,23,03,17,12.40
2007,10,23,03,18,12.40
2007,10,23,03,19,12.40
2007,10,23,03,20,12.40
2007,10,23,03,21,12.40
2007,10,23,03,22,12.40
2007,10,23,03,23,12.40
2007,10,23,03,24,12.40
2007,10,23,03,25,12.40
2007,10,23,03,26,12.30
2007,10,23,03,27,12.30
2007,10,23,03,28,12.30
2007,10,23,03,29,12.30
2007,10,23,03,30,12.30
2007,10,23,03,31,12.20
2007,10,23,03,32,12.20
2007,10,23,03,33,12.20
2007,10,23,03,34,12.20
2007,10,23,03,35,12.20
2007,10,23,03,36,12.20
2007,10,23,03,37,12.20
2007,10,23,03,38,12.20
2007,10,23,03,39,12.20
2007,10,23,03,40,12.20
2007,10,23,03,41,12.30
2007,10,23,03,42,12.30
2007,10,23,03,43,12.20
2007,10,23,03,44,12.20
2007,10,23,03,45,12.20
2007,10,23,03,46,12.20
2007,10,23,03,47,12.10
2007,10,23,03,48,12.10
2007,10,23,03,49,12.10
2007,10,23,03,50,12.10
2007,10,23,03,51,12.10
2007,10,23,03,52,12.10
2007,10,23,03,53,12.00
2007,10,23,03,54,12.00
2007,10,23,03,55,12.00
2007,10,23,03,56,12.00
2007,10,23,03,57,12.00
2007,10,23,03,58,12.00
2007,10,23,03,59,12.10
2007,10,23,04,00,12.10
2007,10,23,04,01,12.00
2007,10,23,04,02,12.00
2007,10,23,04,03,12.00
2007,10,23,04,04,12.00
2007,10,23,04,05,12.00
2007,10,23,04,06,12.00
2007,10,23,04,07,12.00
2007,10,23,04,08,12.00
2007,10,23,04,09,12.00
2007,10,23,04,10,12.00
2007,10,23,04,11,12.00
2007,10,23,04,12,12.00
2007,10,23,04,13,12.00
2007,10,23,04,14,12.00
2007,10,23,04,15,12.00
2007,10,23,04,16,12.00
2007,10,23,04,17,12.00
2007,10,23,04,18,12.00
2007,10,23,04,19,11.90
2007,10,23,04,20,11.90
2007,10,23,04,21,11.90
2007,10,23,04,22,11.90
2007,10,23,04,23,11.90
2007,10,23,04,24,11.90
2007,10,23,04,25,11.90
2007,10,23,04,26,11.90
2007,10,23,04,27,11.90
2007,10,23,04,28,11.90
2007,10,23,04,29,11.90
2007,10,23,04,30,11.90
2007,10,23,04,31,11.90
2007,10,23,04,32,11.80
2007,10,23,04,33,11.80
2007,10,23,04,34,11.80
2007,10,23,04,35,11.80
2007,10,23,04,36,11.80
2007,10,23,04,37,11.80
2007,10,23,04,38,11.80
2007,10,23,04,39,11.70
2007,10,23,04,40,11.70
2007,10,23,04,41,11.70
2007,10,23,04,42,11.70
2007,10,23,04,43,11.70
2007,10,23,04,44,11.70
2007,10,23,04,45,11.70
2007,10,23,04,46,11.70
2007,10,23,04,47,11.70
2007,10,23,04,48,11.70
2007,10,23,04,49,11.70
2007,10,23,04,50,11.70
2007,10,23,04,51,11.70
2007,10,23,04,52,11.70
2007,10,23,04,53,11.70
2007,10,23,04,54,11.70
2007,10,23,04,55,11.70
2007,10,23,04,56,11.70
2007,10,23,04,57,11.70
2007,10,23,04,58,11.70
2007,10,23,04,59,11.60
2007,10,23,05,00,11.60
2007,10,23,05,01,11.60
2007,10,23,05,02,11.60
2007,10,23,05,03,11.60
2007,10,23,05,04,11.60
2007,10,23,05,05,11.60
2007,10,23,05,06,11.60
2007,10,23,05,07,11.60
2007,10,23,05,08,11.60
2007,10,23,05,09,11.60
2007,10,23,05,10,11.60
2007,10,23,05,11,11.60
2007,10,23,05,12,11.60
2007,10,23,05,13,11.60
2007,10,23,05,14,11.60
2007,10,23,05,15,11.50
2007,10,23,05,16,11.40
2007,10,23,05,17,11.40
2007,10,23,05,18,11.40
2007,10,23,05,19,11.40
2007,10,23,05,20,11.40
2007,10,23,05,21,11.40
2007,10,23,05,22,11.40
2007,10,23,05,23,11.40
2007,10,23,05,24,11.40
2007,10,23,05,25,11.40
2007,10,23,05,26,11.40
2007,10,23,05,27,11.40
2007,10,23,05,28,11.40
2007,10,23,05,29,11.40
2007,10,23,05,30,11.40
2007,10,23,05,31,11.40
2007,10,23,05,32,11.40
2007,10,23,05,33,11.40
2007,10,23,05,34,11.40
2007,10,23,05,35,11.40
2007,10,23,05,36,11.40
2007,10,23,05,37,11.40
2007,10,23,05,38,11.40
2007,10,23,05,39,11.40
2007,10,23,05,40,11.40
2007,10,23,05,41,11.40
2007,10,23,05,42,11.40
2007,10,23,05,43,11.40
2007,10,23,05,44,11.40
2007,10,23,05,45,11.40
2007,10,23,05,46,11.40
2007,10,23,05,47,11.40
2007,10,23,05,48,11.40
2007,10,23,05,49,11.40
2007,10,23,05,50,11.40
2007,10,23,05,51,11.40
2007,10,23,05,52,11.40
2007,10,23,05,53,11.40
2007,10,23,05,54,11.40
2007,10,23,05,55,11.40
2007,10,23,05,56,11.40
2007,10,23,05,57,11.40
2007,10,23,05,58,11.40
2007,10,23,05,59,11.40
2007,10,23,06,00,11.30
2007,10,23,06,01,11.30
2007,10,23,06,02,11.30
2007,10,23,06,03,11.30
2007,10,23,06,04,11.30
2007,10,23,06,05,11.20
2007,10,23,06,06,11.20
2007,10,23,06,07,11.20
2007,10,23,06,08,11.20
2007,10,23,06,09,11.20
2007,10,23,06,10,11.20
2007,10,23,06,11,11.20
2007,10,23,06,12,11.20
2007,10,23,06,13,11.20
2007,10,23,06,14,11.20
2007,10,23,06,15,11.20
2007,10,23,06,16,11.20
2007,10,23,06,17,11.20
2007,10,23,06,18,11.20
2007,10,23,06,19,11.20
2007,10,23,06,20,11.20
2007,10,23,06,21,11.20
2007,10,23,06,22,11.10
2007,10,23,06,23,11.10
2007,10,23,06,24,11.10
2007,10,23,06,25,11.10
2007,10,23,06,26,11.10
2007,10,23,06,27,11.10
2007,10,23,06,28,11.10
2007,10,23,06,29,11.10
2007,10,23,06,30,11.10
2007,10,23,06,31,11.10
2007,10,23,06,32,11.10
2007,10,23,06,33,11.10
2007,10,23,06,34,11.10
2007,10,23,06,35,11.00
2007,10,23,06,36,10.90
2007,10,23,06,37,10.90
2007,10,23,06,38,10.90
2007,10,23,06,39,10.90
2007,10,23,06,40,10.90
2007,10,23,06,41,10.90
2007,10,23,06,42,10.90
2007,10,23,06,43,10.90
2007,10,23,06,44,11.00
2007,10,23,06,45,11.10
2007,10,23,06,46,11.10
2007,10,23,06,47,11.10
2007,10,23,06,48,11.10
2007,10,23,06,49,11.10
2007,10,23,06,50,11.10
2007,10,23,06,51,10.90
2007,10,23,06,52,10.90
2007,10,23,06,53,11.00
2007,10,23,06,54,11.10
2007,10,23,06,55,11.10
2007,10,23,06,56,11.10
2007,10,23,06,57,11.10
2007,10,23,06,58,11.10
2007,10,23,06,59,11.00
2007,10,23,07,00,11.00
2007,10,23,07,01,10.90
2007,10,23,07,02,10.90
2007,10,23,07,03,11.00
2007,10,23,07,04,11.10
2007,10,23,07,05,11.10
2007,10,23,07,06,11.10
2007,10,23,07,07,11.10
2007,10,23,07,08,11.10
2007,10,23,07,09,11.10
2007,10,23,07,10,10.90
2007,10,23,07,11,10.90
2007,10,23,07,12,10.90
2007,10,23,07,13,10.90
2007,10,23,07,14,10.90
2007,10,23,07,15,10.90
2007,10,23,07,16,10.90
2007,10,23,07,17,10.90
2007,10,23,07,18,10.90
2007,10,23,07,19,10.90
2007,10,23,07,20,10.90
2007,10,23,07,21,10.90
2007,10,23,07,22,10.90
2007,10,23,07,23,10.90
2007,10,23,07,24,10.90
2007,10,23,07,25,10.90
2007,10,23,07,26,10.90
2007,10,23,07,27,10.90
2007,10,23,07,28,10.90
2007,10,23,07,29,10.90
2007,10,23,07,30,10.90
2007,10,23,07,31,10.80
2007,10,23,07,32,10.80
2007,10,23,07,33,10.80
2007,10,23,07,34,10.80
2007,10,23,07,35,10.80
2007,10,23,07,36,10.80
2007,10,23,07,37,10.80
2007,10,23,07,38,10.80
2007,10,23,07,39,10.80
2007,10,23,07,40,10.80
2007,10,23,07,41,10.80
2007,10,23,07,42,10.80
2007,10,23,07,43,10.80
2007,10,23,07,44,10.80
2007,10,23,07,45,10.80
2007,10,23,07,46,10.80
2007,10,23,07,47,10.80
2007,10,23,07,48,10.80
2007,10,23,07,49,10.80
2007,10,23,07,50,10.80
2007,10,23,07,51,10.80
2007,10,23,07,52,10.80
2007,10,23,07,53,10.80
2007,10,23,07,54,10.70
2007,10,23,07,55,10.70
2007,10,23,07,56,10.70
2007,10,23,07,57,10.80
2007,10,23,07,58,10.80
2007,10,23,07,59,10.80
2007,10,23,08,00,10.80
2007,10,23,08,01,10.80
2007,10,23,08,02,10.80
2007,10,23,08,03,10.80
2007,10,23,08,04,10.80
2007,10,23,08,05,10.80
2007,10,23,08,06,10.80
2007,10,23,08,07,10.80
2007,10,23,08,08,10.80
2007,10,23,08,09,10.80
2007,10,23,08,10,10.80
2007,10,23,08,11,10.80
2007,10,23,08,12,10.80
2007,10,23,08,13,10.80
2007,10,23,08,14,10.80
2007,10,23,08,15,10.80
2007,10,23,08,16,10.80
2007,10,23,08,17,10.90
2007,10,23,08,18,10.90
2007,10,23,08,19,10.90
2007,10,23,08,20,10.90
2007,10,23,08,21,10.90
2007,10,23,08,22,10.90
2007,10,23,08,23,11.00
2007,10,23,08,24,11.10
2007,10,23,08,25,11.10
2007,10,23,08,26,11.10
2007,10,23,08,27,11.10
2007,10,23,08,28,11.20
2007,10,23,08,29,11.20
2007,10,23,08,30,11.20
2007,10,23,08,31,11.20
2007,10,23,08,32,11.30
2007,10,23,08,33,11.30
2007,10,23,08,34,11.30
2007,10,23,08,35,11.40
2007,10,23,08,36,11.40
2007,10,23,08,37,11.40
2007,10,23,08,38,11.40
2007,10,23,08,39,11.40
2007,10,23,08,40,11.50
2007,10,23,08,41,11.60
2007,10,23,08,42,11.60
2007,10,23,08,43,11.60
2007,10,23,08,44,11.60
2007,10,23,08,45,11.60
2007,10,23,08,46,11.70
2007,10,23,08,47,11.70
2007,10,23,08,48,11.70
2007,10,23,08,49,11.80
2007,10,23,08,50,11.80
2007,10,23,08,51,11.80
2007,10,23,08,52,11.80
2007,10,23,08,53,11.80
2007,10,23,08,54,11.80
2007,10,23,08,55,11.90
2007,10,23,08,56,11.90
2007,10,23,08,57,11.90
2007,10,23,08,58,11.90
2007,10,23,08,59,12.00
2007,10,23,09,00,12.00
2007,10,23,09,01,12.00
2007,10,23,09,02,12.10
2007,10,23,09,03,12.10
2007,10,23,09,04,12.10
2007,10,23,09,05,12.20
2007,10,23,09,06,12.20
2007,10,23,09,07,12.20
2007,10,23,09,08,12.20
2007,10,23,09,09,12.30
2007,10,23,09,10,12.30
2007,10,23,09,11,12.30
2007,10,23,09,12,12.30
2007,10,23,09,13,12.30
2007,10,23,09,14,12.30
2007,10,23,09,15,12.40
2007,10,23,09,16,12.40
2007,10,23,09,17,12.40
2007,10,23,09,18,12.50
2007,10,23,09,19,12.50
2007,10,23,09,20,12.50
2007,10,23,09,21,12.60
2007,10,23,09,22,12.60
2007,10,23,09,23,12.60
2007,10,23,09,24,12.70
2007,10,23,09,25,12.70
2007,10,23,09,26,12.70
2007,10,23,09,27,12.80
2007,10,23,09,28,12.80
2007,10,23,09,29,12.80
2007,10,23,09,30,12.90
2007,10,23,09,31,12.90
2007,10,23,09,32,13.00
2007,10,23,09,33,13.00
2007,10,23,09,34,13.10
2007,10,23,09,35,13.10
2007,10,23,09,36,13.20
2007,10,23,09,37,13.20
2007,10,23,09,38,13.30
2007,10,23,09,39,13.30
2007,10,23,09,40,13.40
2007,10,23,09,41,13.40
2007,10,23,09,42,13.40
2007,10,23,09,43,13.50
2007,10,23,09,44,13.50
2007,10,23,09,45,13.50
2007,10,23,09,46,13.60
2007,10,23,09,47,13.60
2007,10,23,09,48,13.70
2007,10,23,09,49,13.70
2007,10,23,09,50,13.70
2007,10,23,09,51,13.80
2007,10,23,09,52,13.80
2007,10,23,09,53,13.90
2007,10,23,09,54,13.90
2007,10,23,09,55,13.90
2007,10,23,09,56,14.00
2007,10,23,09,57,14.00
2007,10,23,09,58,14.10
2007,10,23,09,59,14.10
2007,10,23,10,00,14.20
2007,10,23,10,01,14.20
2007,10,23,10,02,14.30
2007,10,23,10,03,14.40
2007,10,23,10,04,14.50
2007,10,23,10,05,14.50
2007,10,23,10,06,14.60
2007,10,23,10,07,14.70
2007,10,23,10,08,14.70
2007,10,23,10,09,14.80
2007,10,23,10,10,14.90
2007,10,23,10,11,15.00
2007,10,23,10,12,15.10
2007,10,23,10,13,15.20
2007,10,23,10,14,15.30
2007,10,23,10,15,15.40
2007,10,23,10,16,15.40
2007,10,23,10,17,15.50
2007,10,23,10,18,15.50
2007,10,23,10,19,15.50
2007,10,23,10,20,15.60
2007,10,23,10,21,15.60
2007,10,23,10,22,15.60
2007,10,23,10,23,15.70
2007,10,23,10,24,15.70
2007,10,23,10,25,15.70
2007,10,23,10,26,15.70
2007,10,23,10,27,15.80
2007,10,23,10,28,15.80
2007,10,23,10,29,15.80
2007,10,23,10,30,15.80
2007,10,23,10,31,15.80
2007,10,23,10,32,15.80
2007,10,23,10,33,15.80
2007,10,23,10,34,15.80
2007,10,23,10,35,15.80
2007,10,23,10,36,15.80
2007,10,23,10,37,15.80
2007,10,23,10,38,15.90
2007,10,23,10,39,15.90
2007,10,23,10,40,15.90
2007,10,23,10,41,15.90
2007,10,23,10,42,16.00
2007,10,23,10,43,16.10
2007,10,23,10,44,16.10
2007,10,23,10,45,16.10
2007,10,23,10,46,16.10
2007,10,23,10,47,16.10
2007,10,23,10,48,16.10
2007,10,23,10,49,16.10
2007,10,23,10,50,16.10
2007,10,23,10,51,16.20
2007,10,23,10,52,16.20
2007,10,23,10,53,16.30
2007,10,23,10,54,16.40
2007,10,23,10,55,16.40
2007,10,23,10,56,16.40
2007,10,23,10,57,16.40
2007,10,23,10,58,16.40
2007,10,23,10,59,16.40
2007,10,23,11,00,16.40
2007,10,23,11,01,16.40
2007,10,23,11,02,16.40
2007,10,23,11,03,16.40
2007,10,23,11,04,16.40
2007,10,23,11,05,16.40
2007,10,23,11,06,16.40
2007,10,23,11,07,16.30
2007,10,23,11,08,16.30
2007,10,23,11,09,16.20
2007,10,23,11,10,16.30
2007,10,23,11,11,16.30
2007,10,23,11,12,16.40
2007,10,23,11,13,16.40
2007,10,23,11,14,16.40
2007,10,23,11,15,16.40
2007,10,23,11,16,16.40
2007,10,23,11,17,16.40
2007,10,23,11,18,16.40
2007,10,23,11,19,16.40
2007,10,23,11,20,16.40
2007,10,23,11,21,16.40
2007,10,23,11,22,16.40
2007,10,23,11,23,16.40
2007,10,23,11,24,16.40
2007,10,23,11,25,16.40
2007,10,23,11,26,16.40
2007,10,23,11,27,16.50
2007,10,23,11,28,16.60
2007,10,23,11,29,16.70
2007,10,23,11,30,16.80
2007,10,23,11,31,16.80
2007,10,23,11,32,16.80
2007,10,23,11,33,16.90
2007,10,23,11,34,16.90
2007,10,23,11,35,16.80
2007,10,23,11,36,16.90
2007,10,23,11,37,16.90
2007,10,23,11,38,16.80
2007,10,23,11,39,16.80
2007,10,23,11,40,16.80
2007,10,23,11,41,16.80
2007,10,23,11,42,16.80
2007,10,23,11,43,16.80
2007,10,23,11,44,16.80
2007,10,23,11,45,16.80
2007,10,23,11,46,16.80
2007,10,23,11,47,16.80
2007,10,23,11,48,16.90
2007,10,23,11,49,16.90
2007,10,23,11,50,17.00
2007,10,23,11,51,17.00
2007,10,23,11,52,17.00
2007,10,23,11,53,17.00
2007,10,23,11,54,17.00
2007,10,23,11,55,17.00
2007,10,23,11,56,17.00
2007,10,23,11,57,16.90
2007,10,23,11,58,16.90
2007,10,23,11,59,16.90
2007,10,23,12,00,16.90
2007,10,23,12,01,16.90
2007,10,23,12,02,17.00
2007,10,23,12,03,17.00
2007,10,23,12,04,17.00
2007,10,23,12,05,17.10
2007,10,23,12,06,17.20
2007,10,23,12,07,17.30
2007,10,23,12,08,17.30
2007,10,23,12,09,17.40
2007,10,23,12,10,17.40
2007,10,23,12,11,17.40
2007,10,23,12,12,17.40
2007,10,23,12,13,17.40
2007,10,23,12,14,17.30
2007,10,23,12,15,17.30
2007,10,23,12,16,17.30
2007,10,23,12,17,17.20
2007,10,23,12,18,17.20
2007,10,23,12,19,17.20
2007,10,23,12,20,17.20
2007,10,23,12,21,17.20
2007,10,23,12,22,17.20
2007,10,23,12,23,17.20
2007,10,23,12,24,17.20
2007,10,23,12,25,17.20
2007,10,23,12,26,17.20
2007,10,23,12,27,17.20
2007,10,23,12,28,17.20
2007,10,23,12,29,17.30
2007,10,23,12,30,17.30
2007,10,23,12,31,17.30
2007,10,23,12,32,17.30
2007,10,23,12,33,17.30
2007,10,23,12,34,17.40
2007,10,23,12,35,17.40
2007,10,23,12,36,17.40
2007,10,23,12,37,17.40
2007,10,23,12,38,17.30
2007,10,23,12,39,17.30
2007,10,23,12,40,17.30
2007,10,23,12,41,17.30
2007,10,23,12,42,17.30
2007,10,23,12,43,17.40
2007,10,23,12,44,17.50
2007,10,23,12,45,17.50
2007,10,23,12,46,17.50
2007,10,23,12,47,17.60
2007,10,23,12,48,17.60
2007,10,23,12,49,17.70
2007,10,23,12,50,17.80
2007,10,23,12,51,17.80
2007,10,23,12,52,17.80
2007,10,23,12,53,17.80
2007,10,23,12,54,17.70
2007,10,23,12,55,17.70
2007,10,23,12,56,17.60
2007,10,23,12,57,17.70
2007,10,23,12,58,17.60
2007,10,23,12,59,17.60
2007,10,23,13,00,17.50
2007,10,23,13,01,17.50
2007,10,23,13,02,17.60
2007,10,23,13,03,17.70
2007,10,23,13,04,17.70
2007,10,23,13,05,17.80
2007,10,23,13,06,17.80
2007,10,23,13,07,17.90
2007,10,23,13,08,17.90
2007,10,23,13,09,17.90
2007,10,23,13,10,17.90
2007,10,23,13,11,17.90
2007,10,23,13,12,17.80
2007,10,23,13,13,17.80
2007,10,23,13,14,17.80
2007,10,23,13,15,17.80
2007,10,23,13,16,17.80
2007,10,23,13,17,17.80
2007,10,23,13,18,17.80
2007,10,23,13,19,17.90
2007,10,23,13,20,17.90
2007,10,23,13,21,17.90
2007,10,23,13,22,17.90
2007,10,23,13,23,17.90
2007,10,23,13,24,17.90
2007,10,23,13,25,17.90
2007,10,23,13,26,17.90
2007,10,23,13,27,18.00
2007,10,23,13,28,18.10
2007,10,23,13,29,18.10
2007,10,23,13,30,18.10
2007,10,23,13,31,18.10
2007,10,23,13,32,18.10
2007,10,23,13,33,18.20
2007,10,23,13,34,18.20
2007,10,23,13,35,18.20
2007,10,23,13,36,18.20
2007,10,23,13,37,18.20
2007,10,23,13,38,18.20
2007,10,23,13,39,18.20
2007,10,23,13,40,18.20
2007,10,23,13,41,18.20
2007,10,23,13,42,18.20
2007,10,23,13,43,18.20
2007,10,23,13,44,18.20
2007,10,23,13,45,18.20
2007,10,23,13,46,18.20
2007,10,23,13,47,18.10
2007,10,23,13,48,18.10
2007,10,23,13,49,18.20
2007,10,23,13,50,18.20
2007,10,23,13,51,18.20
2007,10,23,13,52,18.20
2007,10,23,13,53,18.20
2007,10,23,13,54,18.20
2007,10,23,13,55,18.20
2007,10,23,13,56,18.20
2007,10,23,13,57,18.20
2007,10,23,13,58,18.20
2007,10,23,13,59,18.10
2007,10,23,14,00,18.00
2007,10,23,14,01,17.90
2007,10,23,14,02,17.90
2007,10,23,14,03,18.00
2007,10,23,14,04,18.00
2007,10,23,14,05,17.90
2007,10,23,14,06,17.90
2007,10,23,14,07,17.90
2007,10,23,14,08,17.90
2007,10,23,14,09,17.90
2007,10,23,14,10,17.90
2007,10,23,14,11,17.90
2007,10,23,14,12,17.90
2007,10,23,14,13,17.90
2007,10,23,14,14,17.90
2007,10,23,14,15,17.80
2007,10,23,14,16,17.80
2007,10,23,14,17,17.80
2007,10,23,14,18,17.80
2007,10,23,14,19,17.80
2007,10,23,14,20,17.80
2007,10,23,14,21,17.80
2007,10,23,14,22,17.80
2007,10,23,14,23,17.80
2007,10,23,14,24,17.90
2007,10,23,14,25,17.90
2007,10,23,14,26,17.90
2007,10,23,14,27,17.90
2007,10,23,14,28,17.80
2007,10,23,14,29,17.80
2007,10,23,14,30,17.80
2007,10,23,14,31,17.80
2007,10,23,14,32,17.80
2007,10,23,14,33,17.90
2007,10,23,14,34,17.90
2007,10,23,14,35,17.90
2007,10,23,14,36,17.90
2007,10,23,14,37,17.90
2007,10,23,14,38,17.90
2007,10,23,14,39,17.90
2007,10,23,14,40,17.90
2007,10,23,14,41,17.90
2007,10,23,14,42,18.00
2007,10,23,14,43,18.10
2007,10,23,14,44,18.10
2007,10,23,14,45,18.20
2007,10,23,14,46,18.20
2007,10,23,14,47,18.20
2007,10,23,14,48,18.20
2007,10,23,14,49,18.20
2007,10,23,14,50,18.20
2007,10,23,14,51,18.20
2007,10,23,14,52,18.20
2007,10,23,14,53,18.20
2007,10,23,14,54,18.20
2007,10,23,14,55,18.30
2007,10,23,14,56,18.30
2007,10,23,14,57,18.30
2007,10,23,14,58,18.40
2007,10,23,14,59,18.40
2007,10,23,15,00,18.40
2007,10,23,15,01,18.40
2007,10,23,15,02,18.40
2007,10,23,15,03,18.40
2007,10,23,15,04,18.40
2007,10,23,15,05,18.40
2007,10,23,15,06,18.40
2007,10,23,15,07,18.50
2007,10,23,15,08,18.50
2007,10,23,15,09,18.50
2007,10,23,15,10,18.50
2007,10,23,15,11,18.50
2007,10,23,15,12,18.50
2007,10,23,15,13,18.50
2007,10,23,15,14,18.50
2007,10,23,15,15,18.60
2007,10,23,15,16,18.60
2007,10,23,15,17,18.60
2007,10,23,15,18,18.70
2007,10,23,15,19,18.70
2007,10,23,15,20,18.70
2007,10,23,15,21,18.70
2007,10,23,15,22,18.70
2007,10,23,15,23,18.80
2007,10,23,15,24,18.80
2007,10,23,15,25,18.80
2007,10,23,15,26,18.70
2007,10,23,15,27,18.70
2007,10,23,15,28,18.70
2007,10,23,15,29,18.70
2007,10,23,15,30,18.70
2007,10,23,15,31,18.70
2007,10,23,15,32,18.70
2007,10,23,15,33,18.70
2007,10,23,15,34,18.70
2007,10,23,15,35,18.70
2007,10,23,15,36,18.70
2007,10,23,15,37,18.70
2007,10,23,15,38,18.70
2007,10,23,15,39,18.70
2007,10,23,15,40,18.70
2007,10,23,15,41,18.70
2007,10,23,15,42,18.70
2007,10,23,15,43,18.70
2007,10,23,15,44,18.80
2007,10,23,15,45,18.80
2007,10,23,15,46,18.80
2007,10,23,15,47,18.80
2007,10,23,15,48,18.90
2007,10,23,15,49,18.90
2007,10,23,15,50,19.00
2007,10,23,15,51,19.10
2007,10,23,15,52,19.10
2007,10,23,15,53,19.10
2007,10,23,15,54,19.10
2007,10,23,15,55,19.10
2007,10,23,15,56,19.10
2007,10,23,15,57,19.20
2007,10,23,15,58,19.20
2007,10,23,15,59,19.30
2007,10,23,16,00,19.30
2007,10,23,16,01,19.40
2007,10,23,16,02,19.40
2007,10,23,16,03,19.40
2007,10,23,16,04,19.30
2007,10,23,16,05,19.30
2007,10,23,16,06,19.30
2007,10,23,16,07,19.30
2007,10,23,16,08,19.30
2007,10,23,16,09,19.30
2007,10,23,16,10,19.30
2007,10,23,16,11,19.30
2007,10,23,16,12,19.30
2007,10,23,16,13,19.30
2007,10,23,16,14,19.30
2007,10,23,16,15,19.30
2007,10,23,16,16,19.30
2007,10,23,16,17,19.20
2007,10,23,16,18,19.20
2007,10,23,16,19,19.20
2007,10,23,16,20,19.20
2007,10,23,16,21,19.20
2007,10,23,16,22,19.10
2007,10,23,16,23,19.10
2007,10,23,16,24,19.10
2007,10,23,16,25,19.10
2007,10,23,16,26,19.10
2007,10,23,16,27,19.10
2007,10,23,16,28,19.10
2007,10,23,16,29,19.10
2007,10,23,16,30,19.10
2007,10,23,16,31,19.10
2007,10,23,16,32,19.10
2007,10,23,16,33,19.00
2007,10,23,16,34,18.90
2007,10,23,16,35,18.90
2007,10,23,16,36,18.90
2007,10,23,16,37,18.90
2007,10,23,16,38,18.90
2007,10,23,16,39,18.90
2007,10,23,16,40,18.90
2007,10,23,16,41,18.90
2007,10,23,16,42,18.90
2007,10,23,16,43,18.90
2007,10,23,16,44,18.90
2007,10,23,16,45,18.90
2007,10,23,16,46,18.90
2007,10,23,16,47,18.90
2007,10,23,16,48,18.90
2007,10,23,16,49,18.90
2007,10,23,16,50,18.90
2007,10,23,16,51,18.90
2007,10,23,16,52,18.90
2007,10,23,16,53,18.90
2007,10,23,16,54,18.90
2007,10,23,16,55,18.90
2007,10,23,16,56,19.00
2007,10,23,16,57,19.10
2007,10,23,16,58,18.90
2007,10,23,16,59,18.90
2007,10,23,17,00,18.80
2007,10,23,17,01,18.70
2007,10,23,17,02,18.60
2007,10,23,17,03,18.50
2007,10,23,17,04,18.40
2007,10,23,17,05,18.30
2007,10,23,17,06,18.20
2007,10,23,17,07,18.20
2007,10,23,17,08,18.20
2007,10,23,17,09,18.10
2007,10,23,17,10,18.00
2007,10,23,17,11,17.90
2007,10,23,17,12,17.90
2007,10,23,17,13,17.80
2007,10,23,17,14,17.80
2007,10,23,17,15,17.70
2007,10,23,17,16,17.70
2007,10,23,17,17,17.70
2007,10,23,17,18,17.60
2007,10,23,17,19,17.60